COSMOS 375 DEB

基本信息
目录编号:
4635
目录名称:
COSMOS 375 DEB
国际标识:
1970-091M
轨道中心:
EARTH
物体状态:
在轨
发射日期:
1970-10-30 UTC
轨道信息
数据来源: 国际轨道数据
星历时间: 2026-09-04T21:23:10+0800
半长轴: 7619.459km
偏心率: 0.0881709
轨道倾角: 62.828°
近地点辐角: 228.764°
升交点赤经: 292.024°
平近点角: 123.410°
近地点: 569.507km
远地点: 1913.137km
周期: 110.318分钟
每日圈数: 13.053188
详细信息
发射场:
TTMTR
轨道高度:
LEO
数据来源:
AOE Integration Group
参考系:
TEME
时间系统:
UTC
历元类型:
SGP4
2D轨道图
3D轨道图
轨道高度分析图
轨道倾角分析图
轨道综合分析图
查看轨道综合分析图